Location: Rio Tanui
(39.9167°N, 8.5167°E)
Time: 01:56:18
(UTC+00:00)

CZ-4 R/B - Pass Details

Date: 08 February 2023
Orbit: 526 x 586 km, 97.7° (Epoch: 01 April)

Event Time Altitude Azimuth Distance (km) Brightness Sun altitude
Rises 19:26:42 0° 198° (SSW) 2,787 5.1 -29.8°
Reaches altitude 10° 19:29:16 10° 214° (SW) 1,885 4.3 -30.3°
Maximum altitude 19:32:26 22° 265° (W) 1,286 3.8 -30.9°
Drops below altitude 10° 19:35:36 10° 316° (NW) 1,870 4.6 -31.5°
Sets 19:38:08 0° 332° (NNW) 2,759 5.3 -32.0°
